Time,TemperatureF,DewpointF,PressureIn,WindDirection,WindDirectionDegrees,WindSpeedMPH,WindSpeedGustMPH,Humidity,HourlyPrecipIn,Conditions,Clouds,dailyrainin,SolarRadiationWatts/m^2,SoftwareType,DateUTC
2013-02-02 00:01:00,48.0,42.0,-100.00,West,270,2.0,3.0,80,0.00,,,0.00,0.000000,,2013-02-02 08:01:00,
2013-02-02 01:32:00,48.0,42.0,-100.00,SSW,201,2.0,4.0,81,-99.99,,,-99.99,0.000000,,2013-02-02 09:32:00,
2013-02-02 01:42:00,48.0,42.0,-100.00,SSW,201,2.0,4.0,81,-99.99,,,-99.99,0.000000,,2013-02-02 09:42:00,
2013-02-02 01:52:00,48.0,42.0,-100.00,SSW,201,2.0,4.0,81,-99.99,,,-99.99,0.000000,,2013-02-02 09:52:00,
2013-02-02 02:01:00,48.0,42.0,-100.00,SSW,201,2.0,4.0,81,-99.99,,,-99.99,0.000000,,2013-02-02 10:01:00,
2013-02-02 02:11:00,48.0,42.0,-100.00,SSW,201,2.0,4.0,81,-99.99,,,-99.99,0.000000,,2013-02-02 10:11:00,
2013-02-02 02:32:00,47.0,41.0,-100.00,WNW,292,3.0,4.0,78,0.00,,,0.00,0.000000,,2013-02-02 10:32:00,
2013-02-02 02:42:00,47.0,41.0,-100.00,WNW,292,3.0,4.0,78,0.00,,,0.00,0.000000,,2013-02-02 10:42:00,
2013-02-02 02:52:00,47.0,41.0,-100.00,WNW,292,3.0,4.0,78,0.00,,,0.00,0.000000,,2013-02-02 10:52:00,
2013-02-02 03:01:00,47.0,41.0,-100.00,WNW,292,3.0,4.0,78,0.00,,,0.00,0.000000,,2013-02-02 11:01:00,
2013-02-02 03:32:00,48.0,42.0,-100.00,West,267,3.0,4.0,79,-99.99,,,0.00,0.000000,,2013-02-02 11:32:00,
2013-02-02 03:42:00,48.0,42.0,-100.00,West,267,3.0,4.0,79,-99.99,,,0.00,0.000000,,2013-02-02 11:42:00,
2013-02-02 03:52:00,48.0,42.0,-100.00,West,267,3.0,4.0,79,-99.99,,,0.00,0.000000,,2013-02-02 11:52:00,
2013-02-02 04:01:00,48.0,42.0,-100.00,West,267,3.0,4.0,79,-99.99,,,0.00,0.000000,,2013-02-02 12:01:00,
2013-02-02 04:32:00,47.0,40.0,-100.00,West,265,4.0,5.0,76,-99.99,,,0.00,0.000000,,2013-02-02 12:32:00,
2013-02-02 04:42:00,47.0,40.0,-100.00,West,265,4.0,5.0,76,-99.99,,,0.00,0.000000,,2013-02-02 12:42:00,
2013-02-02 04:52:00,47.0,40.0,-100.00,West,265,4.0,5.0,76,-99.99,,,0.00,0.000000,,2013-02-02 12:52:00,
2013-02-02 05:02:00,47.0,40.0,-100.00,West,265,4.0,5.0,76,-99.99,,,0.00,0.000000,,2013-02-02 13:02:00,
2013-02-02 05:33:00,48.0,40.0,-100.00,West,264,3.0,6.0,73,-99.99,,,0.00,0.000000,,2013-02-02 13:33:00,
2013-02-02 05:42:00,48.0,40.0,-100.00,West,264,3.0,6.0,73,-99.99,,,0.00,0.000000,,2013-02-02 13:42:00,
2013-02-02 05:52:00,48.0,40.0,-100.00,West,264,3.0,6.0,73,-99.99,,,0.00,0.000000,,2013-02-02 13:52:00,
2013-02-02 06:02:00,48.0,40.0,-100.00,West,264,3.0,6.0,73,-99.99,,,0.00,0.000000,,2013-02-02 14:02:00,
2013-02-02 06:33:00,48.0,36.0,-100.00,SW,218,2.0,6.0,62,-99.99,,,0.00,0.000000,,2013-02-02 14:33:00,
2013-02-02 06:42:00,48.0,36.0,-100.00,SW,218,2.0,6.0,62,-99.99,,,0.00,0.000000,,2013-02-02 14:42:00,
2013-02-02 06:52:00,48.0,36.0,-100.00,SW,218,2.0,6.0,62,-99.99,,,0.00,0.000000,,2013-02-02 14:52:00,
2013-02-02 07:02:00,48.0,36.0,-100.00,SW,218,2.0,6.0,62,-99.99,,,0.00,0.000000,,2013-02-02 15:02:00,
2013-02-02 07:33:00,49.0,35.0,-100.00,SSE,149,4.0,5.0,58,-99.99,,,0.00,0.000000,,2013-02-02 15:33:00,
2013-02-02 07:42:00,49.0,35.0,-100.00,SSE,149,4.0,5.0,58,-99.99,,,0.00,0.000000,,2013-02-02 15:42:00,
2013-02-02 07:52:00,49.0,35.0,-100.00,SSE,149,4.0,5.0,58,-99.99,,,0.00,0.000000,,2013-02-02 15:52:00,
2013-02-02 08:02:00,49.0,35.0,-100.00,SSE,149,4.0,5.0,58,-99.99,,,0.00,0.000000,,2013-02-02 16:02:00,
2013-02-02 08:42:00,51.0,33.0,-100.00,WNW,303,2.0,5.0,49,-99.99,,,0.00,17.000000,,2013-02-02 16:42:00,
2013-02-02 08:52:00,51.0,33.0,-100.00,WNW,303,2.0,5.0,49,-99.99,,,0.00,17.000000,,2013-02-02 16:52:00,
2013-02-02 09:02:00,51.0,33.0,-100.00,WNW,303,2.0,5.0,49,-99.99,,,0.00,17.000000,,2013-02-02 17:02:00,
2013-02-02 09:33:00,51.0,36.0,-100.00,SSE,153,3.0,6.0,57,-99.99,,,0.00,130.000000,,2013-02-02 17:33:00,
2013-02-02 09:42:00,51.0,36.0,-100.00,SSE,153,3.0,6.0,57,-99.99,,,0.00,130.000000,,2013-02-02 17:42:00,
2013-02-02 09:52:00,51.0,36.0,-100.00,SSE,153,3.0,6.0,57,-99.99,,,0.00,130.000000,,2013-02-02 17:52:00,
2013-02-02 10:02:00,51.0,36.0,-100.00,SSE,153,3.0,6.0,57,-99.99,,,0.00,130.000000,,2013-02-02 18:02:00,
2013-02-02 10:32:00,51.0,39.0,-100.00,West,266,3.0,4.0,64,0.00,,,0.00,262.000000,,2013-02-02 18:32:00,
2013-02-02 10:42:00,51.0,39.0,-100.00,West,266,3.0,4.0,64,0.00,,,0.00,262.000000,,2013-02-02 18:42:00,
2013-02-02 10:52:00,51.0,39.0,-100.00,West,266,3.0,4.0,64,0.00,,,0.00,262.000000,,2013-02-02 18:52:00,
2013-02-02 11:01:00,51.0,39.0,-100.00,West,266,3.0,4.0,64,0.00,,,0.00,262.000000,,2013-02-02 19:01:00,
2013-02-02 11:11:00,51.0,39.0,-100.00,West,266,3.0,4.0,64,0.00,,,0.00,262.000000,,2013-02-02 19:11:00,
2013-02-02 11:32:00,53.0,40.0,-100.00,West,263,2.0,5.0,62,0.00,,,0.00,373.000000,,2013-02-02 19:32:00,
2013-02-02 11:42:00,53.0,40.0,-100.00,West,263,2.0,5.0,62,0.00,,,0.00,373.000000,,2013-02-02 19:42:00,
2013-02-02 11:52:00,53.0,40.0,-100.00,West,263,2.0,5.0,62,0.00,,,0.00,373.000000,,2013-02-02 19:52:00,
2013-02-02 12:01:00,53.0,40.0,-100.00,West,263,2.0,5.0,62,0.00,,,0.00,373.000000,,2013-02-02 20:01:00,
2013-02-02 12:11:00,53.0,40.0,-100.00,West,263,2.0,5.0,62,0.00,,,0.00,373.000000,,2013-02-02 20:11:00,
2013-02-02 12:32:00,54.0,40.0,-100.00,WNW,300,2.0,5.0,58,0.00,,,0.00,352.000000,,2013-02-02 20:32:00,
2013-02-02 12:42:00,54.0,40.0,-100.00,WNW,300,2.0,5.0,58,0.00,,,0.00,352.000000,,2013-02-02 20:42:00,
2013-02-02 12:52:00,54.0,40.0,-100.00,WNW,300,2.0,5.0,58,0.00,,,0.00,352.000000,,2013-02-02 20:52:00,
2013-02-02 13:01:00,54.0,40.0,-100.00,WNW,300,2.0,5.0,58,0.00,,,0.00,352.000000,,2013-02-02 21:01:00,
2013-02-02 13:11:00,54.0,40.0,-100.00,WNW,300,2.0,5.0,58,0.00,,,0.00,352.000000,,2013-02-02 21:11:00,
2013-02-02 13:32:00,53.0,43.0,-100.00,NW,305,5.0,6.0,69,0.00,,,0.00,321.000000,,2013-02-02 21:32:00,
2013-02-02 13:42:00,53.0,43.0,-100.00,NW,305,5.0,6.0,69,0.00,,,0.00,321.000000,,2013-02-02 21:42:00,
2013-02-02 13:52:00,53.0,43.0,-100.00,NW,305,5.0,6.0,69,0.00,,,0.00,321.000000,,2013-02-02 21:52:00,
2013-02-02 14:02:00,53.0,43.0,-100.00,NW,305,5.0,6.0,69,0.00,,,0.00,321.000000,,2013-02-02 22:02:00,
2013-02-02 14:11:00,53.0,43.0,-100.00,NW,305,5.0,6.0,69,0.00,,,0.00,321.000000,,2013-02-02 22:11:00,
2013-02-02 14:32:00,57.0,45.0,-100.00,NNE,15,3.0,9.0,63,0.00,,,0.00,386.000000,,2013-02-02 22:32:00,
2013-02-02 14:42:00,57.0,45.0,-100.00,NNE,15,3.0,9.0,63,0.00,,,0.00,386.000000,,2013-02-02 22:42:00,
2013-02-02 14:52:00,57.0,45.0,-100.00,NNE,15,3.0,9.0,63,0.00,,,0.00,386.000000,,2013-02-02 22:52:00,
2013-02-02 15:01:00,57.0,45.0,-100.00,NNE,15,3.0,9.0,63,0.00,,,0.00,386.000000,,2013-02-02 23:01:00,
2013-02-02 15:11:00,57.0,45.0,-100.00,NNE,15,3.0,9.0,63,0.00,,,0.00,386.000000,,2013-02-02 23:11:00,
2013-02-02 15:32:00,58.0,39.0,-100.00,NNW,338,5.0,8.0,50,0.00,,,0.00,433.000000,,2013-02-02 23:32:00,
2013-02-02 15:42:00,58.0,39.0,-100.00,NNW,338,5.0,8.0,50,0.00,,,0.00,433.000000,,2013-02-02 23:42:00,
2013-02-02 15:52:00,58.0,39.0,-100.00,NNW,338,5.0,8.0,50,0.00,,,0.00,433.000000,,2013-02-02 23:52:00,
2013-02-02 16:01:00,58.0,39.0,-100.00,NNW,338,5.0,8.0,50,0.00,,,0.00,433.000000,,2013-02-03 00:01:00,
2013-02-02 16:11:00,58.0,39.0,-100.00,NNW,338,5.0,8.0,50,0.00,,,0.00,433.000000,,2013-02-03 00:11:00,
2013-02-02 16:32:00,52.0,43.0,-100.00,NW,312,9.0,13.0,72,0.00,,,0.00,247.000000,,2013-02-03 00:32:00,
2013-02-02 16:42:00,52.0,43.0,-100.00,NW,312,9.0,13.0,72,0.00,,,0.00,247.000000,,2013-02-03 00:42:00,
2013-02-02 16:52:00,52.0,43.0,-100.00,NW,312,9.0,13.0,72,0.00,,,0.00,247.000000,,2013-02-03 00:52:00,
2013-02-02 17:02:00,52.0,43.0,-100.00,NW,312,9.0,13.0,72,0.00,,,0.00,247.000000,,2013-02-03 01:02:00,
2013-02-02 17:11:00,52.0,43.0,-100.00,NW,312,9.0,13.0,72,0.00,,,0.00,247.000000,,2013-02-03 01:11:00,
2013-02-02 17:32:00,46.0,44.0,-100.00,North,1,4.0,11.0,93,0.00,,,0.00,53.000000,,2013-02-03 01:32:00,
2013-02-02 17:42:00,46.0,44.0,-100.00,North,1,4.0,11.0,93,0.00,,,0.00,53.000000,,2013-02-03 01:42:00,
2013-02-02 17:52:00,46.0,44.0,-100.00,North,1,4.0,11.0,93,0.00,,,0.00,53.000000,,2013-02-03 01:52:00,
2013-02-02 18:01:00,46.0,44.0,-100.00,North,1,4.0,11.0,93,0.00,,,0.00,53.000000,,2013-02-03 02:01:00,
2013-02-02 18:11:00,46.0,44.0,-100.00,North,1,4.0,11.0,93,0.00,,,0.00,53.000000,,2013-02-03 02:11:00,
2013-02-02 18:42:00,44.0,43.0,-100.00,NNW,343,4.0,7.0,96,0.00,,,0.00,1.000000,,2013-02-03 02:42:00,
2013-02-02 18:52:00,44.0,43.0,-100.00,NNW,343,4.0,7.0,96,0.00,,,0.00,1.000000,,2013-02-03 02:52:00,
2013-02-02 19:02:00,44.0,43.0,-100.00,NNW,343,4.0,7.0,96,0.00,,,0.00,1.000000,,2013-02-03 03:02:00,
2013-02-02 19:11:00,44.0,43.0,-100.00,NNW,343,4.0,7.0,96,0.00,,,0.00,1.000000,,2013-02-03 03:11:00,
2013-02-02 19:32:00,44.0,43.0,-100.00,NW,307,3.0,7.0,98,0.00,,,0.00,0.000000,,2013-02-03 03:32:00,
2013-02-02 19:42:00,44.0,43.0,-100.00,NW,307,3.0,7.0,98,0.00,,,0.00,0.000000,,2013-02-03 03:42:00,
2013-02-02 19:52:00,44.0,43.0,-100.00,NW,307,3.0,7.0,98,0.00,,,0.00,0.000000,,2013-02-03 03:52:00,
2013-02-02 20:01:00,44.0,43.0,-100.00,NW,307,3.0,7.0,98,0.00,,,0.00,0.000000,,2013-02-03 04:01:00,
2013-02-02 20:11:00,44.0,43.0,-100.00,NW,307,3.0,7.0,98,0.00,,,0.00,0.000000,,2013-02-03 04:11:00,
2013-02-02 20:32:00,44.0,43.0,-100.00,East,96,2.0,5.0,98,0.00,,,0.00,0.000000,,2013-02-03 04:32:00,
2013-02-02 20:42:00,44.0,43.0,-100.00,East,96,2.0,5.0,98,0.00,,,0.00,0.000000,,2013-02-03 04:42:00,
2013-02-02 20:52:00,44.0,43.0,-100.00,East,96,2.0,5.0,98,0.00,,,0.00,0.000000,,2013-02-03 04:52:00,
2013-02-02 21:03:00,44.0,43.0,-100.00,East,96,2.0,5.0,98,0.00,,,0.00,0.000000,,2013-02-03 05:03:00,
2013-02-02 21:11:00,44.0,43.0,-100.00,East,96,2.0,5.0,98,0.00,,,0.00,0.000000,,2013-02-03 05:11:00,
2013-02-02 21:32:00,44.0,44.0,-100.00,ESE,102,5.0,8.0,99,0.00,,,-99.99,0.000000,,2013-02-03 05:32:00,
2013-02-02 21:42:00,44.0,44.0,-100.00,ESE,102,5.0,8.0,99,0.00,,,-99.99,0.000000,,2013-02-03 05:42:00,
2013-02-02 21:52:00,44.0,44.0,-100.00,ESE,102,5.0,8.0,99,0.00,,,-99.99,0.000000,,2013-02-03 05:52:00,
2013-02-02 22:02:00,44.0,44.0,-100.00,ESE,102,5.0,8.0,99,0.00,,,-99.99,0.000000,,2013-02-03 06:02:00,
2013-02-02 22:11:00,44.0,44.0,-100.00,ESE,102,5.0,8.0,99,0.00,,,-99.99,0.000000,,2013-02-03 06:11:00,
2013-02-02 22:32:00,44.0,44.0,-100.00,SE,143,1.0,7.0,99,0.00,,,0.00,0.000000,,2013-02-03 06:32:00,
2013-02-02 22:42:00,44.0,44.0,-100.00,SE,143,1.0,7.0,99,0.00,,,0.00,0.000000,,2013-02-03 06:42:00,
2013-02-02 22:52:00,44.0,44.0,-100.00,SE,143,1.0,7.0,99,0.00,,,0.00,0.000000,,2013-02-03 06:52:00,
2013-02-02 23:01:00,44.0,44.0,-100.00,SE,143,1.0,7.0,99,0.00,,,0.00,0.000000,,2013-02-03 07:01:00,
2013-02-02 23:11:00,44.0,44.0,-100.00,SE,143,1.0,7.0,99,0.00,,,0.00,0.000000,,2013-02-03 07:11:00,
2013-02-02 23:32:00,44.0,44.0,-100.00,NW,326,4.0,6.0,99,0.00,,,0.00,0.000000,,2013-02-03 07:32:00,
2013-02-02 23:42:00,44.0,44.0,-100.00,NW,326,4.0,6.0,99,0.00,,,0.00,0.000000,,2013-02-03 07:42:00,
2013-02-02 23:52:00,44.0,44.0,-100.00,NW,326,4.0,6.0,99,0.00,,,0.00,0.000000,,2013-02-03 07:52:00,